• In Belarus
  • List of Countries
  • For 7 days
  • Water Temperature
  • Satellite Maps
  • Weather Map
  • Weather Widgets
  • user-avatar
    Login

    Hourly Weather Nadvornaya

    Today, 25 June, Monday

    Time Temperature Precipitation Wind Pressure Humidity
    00:00 +14°C° 0 mm 1 mps 723 mmHg 82%
    01:00 +13°C° 0 mm 1 mps 723 mmHg 78%
    02:00 +13°C° 0 mm 2 mps 723 mmHg 80%
    03:00 +12°C° 0 mm 3 mps 723 mmHg 81%
    04:00 +12°C° 0 mm 3 mps 723 mmHg 82%
    05:00 +13°C° 0 mm 2 mps 723 mmHg 83%
    06:00 +13°C° 0 mm 1 mps 723 mmHg 83%
    07:00 +14°C° 0 mm 1 mps 724 mmHg 88%
    08:00 +15°C° 0 mm 0 mps 724 mmHg 86%
    09:00 +18°C° 0 mm 1 mps 725 mmHg 85%
    10:00 +18°C° 0 mm 2 mps 725 mmHg 84%
    11:00 +18°C° 0.6 mm 2 mps 725 mmHg 87%
    12:00 +18°C° 0.2 mm 3 mps 725 mmHg 86%
    13:00 +18°C° 0.4 mm 2 mps 725 mmHg 86%
    14:00 +20°C° 0.1 mm 3 mps 725 mmHg 83%
    15:00 +19°C° 0.7 mm 4 mps 725 mmHg 90%
    16:00 +19°C° 0.2 mm 4 mps 724 mmHg 87%
    17:00 +17°C° 2 mm 4 mps 724 mmHg 97%
    18:00 +18°C° 0.5 mm 2 mps 725 mmHg 91%
    19:00 +18°C° 0 mm 1 mps 725 mmHg 92%
    20:00 +18°C° 0 mm 1 mps 725 mmHg 96%
    21:00 +18°C° 0 mm 1 mps 725 mmHg 96%
    22:00 +16°C° 0 mm 1 mps 725 mmHg 97%
    23:00 +16°C° 0 mm 1 mps 725 mmHg 93%

    Tomorrow, 26 June, Tuesday

    Time Temperature Precipitation Wind Pressure Humidity
    00:00 +16°C° 0 mm 1 mps 725 mmHg 87%
    01:00 +16°C° 0 mm 1 mps 725 mmHg 86%
    02:00 +15°C° 0 mm 1 mps 725 mmHg 91%
    03:00 +15°C° 0 mm 1 mps 724 mmHg 90%
    04:00 +14°C° 0 mm 1 mps 724 mmHg 90%
    05:00 +14°C° 0 mm 1 mps 725 mmHg 92%
    06:00 +14°C° 0 mm 1 mps 725 mmHg 95%
    07:00 +16°C° 0 mm 1 mps 725 mmHg 98%
    08:00 +16°C° 0 mm 0 mps 725 mmHg 96%
    09:00 +18°C° 0 mm 1 mps 725 mmHg 98%
    10:00 +17°C° 0 mm 2 mps 725 mmHg 100%
    11:00 +18°C° 0 mm 2 mps 725 mmHg 100%
    12:00 +19°C° 0 mm 2 mps 725 mmHg 99%
    13:00 +20°C° 0 mm 2 mps 724 mmHg 95%
    14:00 +21°C° 0.2 mm 1 mps 724 mmHg 94%
    15:00 +18°C° 2.8 mm 4 mps 724 mmHg 90%
    16:00 +20°C° 0.8 mm 1 mps 723 mmHg 86%
    17:00 +20°C° 0 mm 3 mps 723 mmHg 88%
    18:00 +20°C° 0 mm 1 mps 723 mmHg 93%
    19:00 +19°C° 0 mm 2 mps 723 mmHg 95%
    20:00 +18°C° 0 mm 2 mps 723 mmHg 98%
    21:00 +18°C° 0 mm 2 mps 723 mmHg 97%
    22:00 +18°C° 0 mm 1 mps 723 mmHg 99%
    23:00 +16°C° 0 mm 0 mps 723 mmHg 100%

    Day after tomorrow, 27 June, Wednesday

    Time Temperature Precipitation Wind Pressure Humidity
    00:00 +16°C° 0 mm 0 mps 723 mmHg 100%
    01:00 +16°C° 0 mm 1 mps 722 mmHg 100%
    02:00 +16°C° 0 mm 1 mps 722 mmHg 100%
    03:00 +16°C° 0 mm 1 mps 722 mmHg 100%
    04:00 +15°C° 0.1 mm 0 mps 722 mmHg 100%
    05:00 +15°C° 0 mm 0 mps 722 mmHg 100%
    06:00 +17°C° 0 mm 3 mps 722 mmHg 93%
    07:00 +17°C° 0.1 mm 2 mps 722 mmHg 95%
    08:00 +16°C° 0.9 mm 3 mps 722 mmHg 97%
    09:00 +16°C° 2.4 mm 1 mps 722 mmHg 99%
    10:00 +16°C° 0.5 mm 2 mps 722 mmHg 98%
    11:00 +17°C° 0 mm 2 mps 722 mmHg 96%
    12:00 +18°C° 0 mm 2 mps 722 mmHg 97%
    13:00 +20°C° 0 mm 2 mps 722 mmHg 97%
    14:00 +20°C° 0 mm 3 mps 721 mmHg 94%
    15:00 +21°C° 0 mm 2 mps 721 mmHg 91%
    16:00 +22°C° 0 mm 3 mps 720 mmHg 92%
    17:00 +21°C° 0.3 mm 3 mps 720 mmHg 97%
    18:00 +22°C° 0.4 mm 3 mps 720 mmHg 94%
    19:00 +21°C° 0 mm 4 mps 719 mmHg 94%
    20:00 +21°C° 0 mm 4 mps 719 mmHg 98%
    21:00 +20°C° 0 mm 4 mps 718 mmHg 100%
    22:00 +20°C° 0 mm 6 mps 716 mmHg 100%
    23:00 +20°C° 9.5 mm 4 mps 715 mmHg 100%

    28 June, Thursday

    Time Temperature Precipitation Wind Pressure Humidity
    00:00 +20°C° 4.5 mm 8 mps 714 mmHg 100%
    01:00 +20°C° 2 mm 8 mps 714 mmHg 100%
    02:00 +20°C° 0 mm 6 mps 714 mmHg 100%
    03:00 +20°C° 0 mm 6 mps 714 mmHg 100%
    04:00 +19°C° 0 mm 5 mps 714 mmHg 100%
    05:00 +19°C° 0 mm 5 mps 714 mmHg 100%
    06:00 +19°C° 0 mm 4 mps 714 mmHg 100%
    07:00 +19°C° 0 mm 5 mps 715 mmHg 100%
    08:00 +19°C° 0 mm 5 mps 715 mmHg 100%
    09:00 +19°C° 0 mm 5 mps 715 mmHg 100%
    10:00 +20°C° 0 mm 6 mps 716 mmHg 100%
    11:00 +21°C° 0 mm 5 mps 716 mmHg 97%
    12:00 +23°C° 0.3 mm 2 mps 717 mmHg 83%
    13:00 +24°C° 0 mm 1 mps 717 mmHg 81%
    14:00 +23°C° 0.2 mm 2 mps 716 mmHg 88%

    29 June, Friday

    Time Temperature Precipitation Wind Pressure Humidity

    30 June, Saturday

    Time Temperature Precipitation Wind Pressure Humidity
    Show more